Time,TemperatureF,DewpointF,PressureIn,WindDirection,WindDirectionDegrees,WindSpeedMPH,WindSpeedGustMPH,Humidity,HourlyPrecipIn,Conditions,Clouds,dailyrainin,SoftwareType,DateUTC
2013-03-10 00:00:00,26.4,23.3,30.32,WNW,299,0.0,0.0,88,0.00,SCT,OVC,0.00,WeatherDisplay:10.37,2013-03-10 05:00:00,
2013-03-10 00:09:00,26.5,23.4,30.32,WNW,299,0.0,0.0,88,0.00,SCT,OVC,0.00,WeatherDisplay:10.37,2013-03-10 05:09:00,
2013-03-10 00:14:00,26.5,23.4,30.31,WNW,299,0.0,0.0,88,0.00,SCT,OVC,0.00,WeatherDisplay:10.37,2013-03-10 05:14:00,
2013-03-10 00:19:00,26.4,23.4,30.31,WNW,299,0.0,0.0,88,0.00,SCT,OVC,0.00,WeatherDisplay:10.37,2013-03-10 05:19:00,
2013-03-10 00:24:00,26.5,23.4,30.31,WNW,299,0.0,0.0,88,0.00,SCT,OVC,0.00,WeatherDisplay:10.37,2013-03-10 05:24:00,
2013-03-10 00:30:00,26.5,23.4,30.31,WNW,299,0.0,0.0,88,0.00,SCT,OVC,0.00,WeatherDisplay:10.37,2013-03-10 05:30:00,
2013-03-10 00:34:00,26.6,23.5,30.31,WNW,299,0.0,0.0,88,0.00,SCT,OVC,0.00,WeatherDisplay:10.37,2013-03-10 05:34:00,
2013-03-10 00:39:00,26.6,23.5,30.31,WNW,299,0.0,0.0,88,0.00,SCT,OVC,0.00,WeatherDisplay:10.37,2013-03-10 05:39:00,
2013-03-10 00:44:00,26.6,23.6,30.31,WNW,299,0.0,0.0,88,0.00,SCT,OVC,0.00,WeatherDisplay:10.37,2013-03-10 05:44:00,
2013-03-10 00:49:00,26.7,23.6,30.31,WNW,299,0.0,0.0,88,0.00,SCT,OVC,0.00,WeatherDisplay:10.37,2013-03-10 05:49:00,
2013-03-10 00:54:00,26.8,23.7,30.30,WNW,299,0.0,0.0,88,0.00,SCT,OVC,0.00,WeatherDisplay:10.37,2013-03-10 05:54:00,
2013-03-10 00:59:00,26.9,23.8,30.30,WNW,299,0.0,0.0,88,0.00,SCT,OVC,0.00,WeatherDisplay:10.37,2013-03-10 05:59:00,
2013-03-10 01:04:00,27.0,23.9,30.30,WNW,299,0.0,0.0,88,0.00,SCT,OVC,0.00,WeatherDisplay:10.37,2013-03-10 06:04:00,
2013-03-10 01:09:00,27.1,24.0,30.30,WNW,299,0.0,1.0,88,0.00,SCT,OVC,0.00,WeatherDisplay:10.37,2013-03-10 06:09:00,
2013-03-10 01:14:00,27.3,23.9,30.30,WNW,299,0.0,0.0,87,0.00,BKN,OVC,0.00,WeatherDisplay:10.37,2013-03-10 06:14:00,
2013-03-10 01:19:00,27.3,24.2,30.30,WNW,299,0.0,1.0,88,0.00,BKN,OVC,0.00,WeatherDisplay:10.37,2013-03-10 06:19:00,
2013-03-10 01:24:00,27.5,24.1,30.31,WNW,302,1.0,2.0,87,0.00,BKN,OVC,0.00,WeatherDisplay:10.37,2013-03-10 06:24:00,
2013-03-10 01:29:00,27.7,24.3,30.31,NW,306,0.0,3.0,87,0.00,BKN,OVC,0.00,WeatherDisplay:10.37,2013-03-10 06:29:00,
2013-03-10 01:34:00,27.8,24.2,30.31,NW,308,0.0,1.0,86,0.00,BKN,OVC,0.00,WeatherDisplay:10.37,2013-03-10 06:34:00,
2013-03-10 01:39:00,27.8,24.1,30.30,NW,307,0.0,0.0,86,0.00,BKN,OVC,0.00,WeatherDisplay:10.37,2013-03-10 06:39:00,
2013-03-10 01:44:00,27.8,24.5,30.30,NW,307,1.0,2.0,87,0.00,BKN,OVC,0.00,WeatherDisplay:10.37,2013-03-10 06:44:00,
2013-03-10 01:49:00,28.1,24.5,30.30,NW,309,1.0,3.0,86,0.00,BKN,OVC,0.00,WeatherDisplay:10.37,2013-03-10 06:49:00,
2013-03-10 01:54:00,28.5,24.3,30.30,NW,313,0.0,0.0,84,0.00,BKN,OVC,0.00,WeatherDisplay:10.37,2013-03-10 06:54:00,
2013-03-10 01:59:00,28.7,24.5,30.29,NW,317,0.0,0.0,84,0.00,BKN,OVC,0.00,WeatherDisplay:10.37,2013-03-10 06:59:00,
2013-03-10 03:04:00,28.4,24.5,30.30,NW,317,0.0,1.0,85,0.00,BKN,OVC,0.00,WeatherDisplay:10.37,2013-03-10 07:04:00,
2013-03-10 03:09:00,28.4,24.5,30.29,North,351,0.0,2.0,85,0.00,BKN,OVC,0.00,WeatherDisplay:10.37,2013-03-10 07:09:00,
2013-03-10 03:14:00,28.6,24.4,30.29,NE,36,1.0,2.0,84,0.00,OVC,OVC,0.00,WeatherDisplay:10.37,2013-03-10 07:14:00,
2013-03-10 03:19:00,28.8,24.6,30.29,NE,45,0.0,2.0,84,0.00,OVC,OVC,0.00,WeatherDisplay:10.37,2013-03-10 07:19:00,
2013-03-10 03:24:00,28.9,24.3,30.29,NE,42,0.0,2.0,83,0.00,OVC,OVC,0.00,WeatherDisplay:10.37,2013-03-10 07:24:00,
2013-03-10 03:29:00,29.0,24.5,30.29,NNE,19,0.0,2.0,83,0.00,OVC,OVC,0.00,WeatherDisplay:10.37,2013-03-10 07:29:00,
2013-03-10 03:34:00,29.5,24.4,30.28,NE,48,0.0,2.0,81,0.00,OVC,OVC,0.00,WeatherDisplay:10.37,2013-03-10 07:34:00,
2013-03-10 03:39:00,29.3,24.2,30.28,East,88,0.0,0.0,81,0.00,OVC,OVC,0.00,WeatherDisplay:10.37,2013-03-10 07:39:00,
2013-03-10 03:44:00,28.9,24.4,30.28,East,88,0.0,1.0,83,0.00,OVC,OVC,0.00,WeatherDisplay:10.37,2013-03-10 07:44:00,
2013-03-10 03:49:00,28.8,24.3,30.28,ENE,58,0.0,2.0,83,0.00,OVC,OVC,0.00,WeatherDisplay:10.37,2013-03-10 07:49:00,
2013-03-10 03:54:00,28.9,24.1,30.27,NNE,30,0.0,1.0,82,0.00,OVC,OVC,0.00,WeatherDisplay:10.37,2013-03-10 07:54:00,
2013-03-10 03:59:00,28.8,24.0,30.27,NNE,32,0.0,1.0,82,0.00,OVC,OVC,0.00,WeatherDisplay:10.37,2013-03-10 07:59:00,
2013-03-10 04:04:00,28.7,23.9,30.27,NNE,32,0.0,0.0,82,0.00,OVC,OVC,0.00,WeatherDisplay:10.37,2013-03-10 08:04:00,
2013-03-10 04:09:00,28.8,24.0,30.27,NE,35,0.0,2.0,82,0.00,OVC,OVC,0.00,WeatherDisplay:10.37,2013-03-10 08:09:00,
2013-03-10 04:14:00,29.0,23.9,30.26,NE,43,0.0,1.0,81,0.00,OVC,OVC,0.00,WeatherDisplay:10.37,2013-03-10 08:14:00,
2013-03-10 04:19:00,28.6,23.8,30.26,NE,55,0.0,0.0,82,0.00,OVC,OVC,0.00,WeatherDisplay:10.37,2013-03-10 08:19:00,
2013-03-10 04:24:00,28.4,23.6,30.26,NE,53,0.0,2.0,82,0.00,OVC,OVC,0.00,WeatherDisplay:10.37,2013-03-10 08:24:00,
2013-03-10 04:29:00,28.2,23.7,30.27,NNE,27,0.0,2.0,83,0.00,OVC,OVC,0.00,WeatherDisplay:10.37,2013-03-10 08:29:00,
2013-03-10 04:34:00,28.2,23.7,30.26,NNW,340,0.0,0.0,83,0.00,OVC,OVC,0.00,WeatherDisplay:10.37,2013-03-10 08:34:00,
2013-03-10 04:39:00,27.8,23.6,30.26,NNW,338,0.0,0.0,84,0.00,OVC,OVC,0.00,WeatherDisplay:10.37,2013-03-10 08:39:00,
2013-03-10 04:44:00,27.3,23.4,30.26,NNW,338,0.0,0.0,85,0.00,OVC,OVC,0.00,WeatherDisplay:10.37,2013-03-10 08:44:00,
2013-03-10 04:49:00,27.1,23.5,30.26,NNW,338,0.0,0.0,86,0.00,OVC,OVC,0.00,WeatherDisplay:10.37,2013-03-10 08:49:00,
2013-03-10 04:54:00,27.1,23.5,30.26,NNW,338,0.0,0.0,86,0.00,OVC,OVC,0.00,WeatherDisplay:10.37,2013-03-10 08:54:00,
2013-03-10 04:59:00,27.1,23.5,30.26,NNW,338,1.0,2.0,86,0.00,OVC,OVC,0.00,WeatherDisplay:10.37,2013-03-10 08:59:00,
2013-03-10 05:04:00,27.2,23.3,30.26,NNW,338,0.0,1.0,85,0.00,OVC,OVC,0.00,WeatherDisplay:10.37,2013-03-10 09:04:00,
2013-03-10 05:09:00,27.0,23.4,30.26,NNW,338,0.0,0.0,86,0.00,OVC,OVC,0.00,WeatherDisplay:10.37,2013-03-10 09:09:00,
2013-03-10 05:14:00,27.0,23.6,30.26,NNW,338,0.0,0.0,87,0.00,OVC,OVC,0.00,WeatherDisplay:10.37,2013-03-10 09:14:00,
2013-03-10 05:19:00,26.8,23.5,30.26,NNW,338,0.0,0.0,87,0.00,OVC,OVC,0.00,WeatherDisplay:10.37,2013-03-10 09:19:00,
2013-03-10 05:24:00,26.8,23.4,30.26,NNW,338,0.0,0.0,87,0.00,OVC,OVC,0.00,WeatherDisplay:10.37,2013-03-10 09:24:00,
2013-03-10 05:29:00,26.8,23.4,30.26,NNW,338,0.0,0.0,87,0.00,OVC,OVC,0.00,WeatherDisplay:10.37,2013-03-10 09:29:00,
2013-03-10 05:34:00,26.8,23.4,30.26,NNW,338,0.0,1.0,87,0.00,OVC,OVC,0.00,WeatherDisplay:10.37,2013-03-10 09:34:00,
2013-03-10 05:39:00,26.8,23.2,30.26,NNW,338,1.0,2.0,86,0.00,OVC,OVC,0.00,WeatherDisplay:10.37,2013-03-10 09:39:00,
2013-03-10 05:44:00,26.9,23.3,30.26,NNW,338,0.0,1.0,86,0.00,OVC,OVC,0.00,WeatherDisplay:10.37,2013-03-10 09:44:00,
2013-03-10 05:49:00,26.9,23.3,30.26,NNW,338,0.0,0.0,86,0.00,OVC,OVC,0.00,WeatherDisplay:10.37,2013-03-10 09:49:00,
2013-03-10 05:54:00,26.7,23.4,30.26,NNW,338,0.0,0.0,87,0.00,OVC,OVC,0.00,WeatherDisplay:10.37,2013-03-10 09:54:00,
2013-03-10 05:59:00,26.6,23.3,30.26,NNW,338,0.0,0.0,87,0.00,OVC,OVC,0.00,WeatherDisplay:10.37,2013-03-10 09:59:00,
2013-03-10 06:04:00,26.4,22.8,30.26,NNW,338,0.0,0.0,86,0.00,OVC,OVC,0.00,WeatherDisplay:10.37,2013-03-10 10:04:00,
2013-03-10 06:09:00,26.3,23.0,30.26,NNW,338,0.0,0.0,87,0.00,OVC,OVC,0.00,WeatherDisplay:10.37,2013-03-10 10:09:00,
2013-03-10 06:14:00,26.1,22.7,30.26,NNW,338,0.0,0.0,87,0.00,OVC,OVC,0.00,WeatherDisplay:10.37,2013-03-10 10:14:00,
2013-03-10 06:19:00,25.8,22.5,30.26,NNW,338,0.0,0.0,87,0.00,OVC,OVC,0.00,WeatherDisplay:10.37,2013-03-10 10:19:00,
2013-03-10 06:24:00,25.7,22.4,30.26,NNW,338,0.0,0.0,87,0.00,BKN,OVC,0.00,WeatherDisplay:10.37,2013-03-10 10:24:00,
2013-03-10 06:29:00,25.7,22.4,30.26,NNW,338,0.0,0.0,87,0.00,BKN,OVC,0.00,WeatherDisplay:10.37,2013-03-10 10:29:00,
2013-03-10 06:34:00,25.8,22.4,30.26,NNW,338,0.0,0.0,87,0.00,BKN,OVC,0.00,WeatherDisplay:10.37,2013-03-10 10:34:00,
2013-03-10 06:39:00,25.5,22.4,30.26,NNW,338,0.0,0.0,88,0.00,BKN,OVC,0.00,WeatherDisplay:10.37,2013-03-10 10:39:00,
2013-03-10 06:44:00,25.3,22.5,30.26,NNW,338,0.0,0.0,89,0.00,BKN,OVC,0.00,WeatherDisplay:10.37,2013-03-10 10:44:00,
2013-03-10 06:49:00,25.2,22.4,30.26,NNW,338,0.0,0.0,89,0.00,BKN,OVC,0.00,WeatherDisplay:10.37,2013-03-10 10:49:00,
2013-03-10 06:54:00,25.4,22.3,30.26,NNW,338,0.0,0.0,88,0.00,BKN,OVC,0.00,WeatherDisplay:10.37,2013-03-10 10:54:00,
2013-03-10 06:59:00,25.5,22.7,30.27,NNW,338,0.0,0.0,89,0.00,BKN,OVC,0.00,WeatherDisplay:10.37,2013-03-10 10:59:00,
2013-03-10 07:04:00,25.5,22.7,30.26,NNW,338,0.0,0.0,89,0.00,BKN,OVC,0.00,WeatherDisplay:10.37,2013-03-10 11:04:00,
2013-03-10 07:09:00,25.8,22.7,30.26,North,350,0.0,0.0,88,0.00,BKN,OVC,0.00,WeatherDisplay:10.37,2013-03-10 11:09:00,
2013-03-10 07:14:00,25.9,22.8,30.26,NNE,29,0.0,0.0,88,0.00,BKN,OVC,0.00,WeatherDisplay:10.37,2013-03-10 11:14:00,
2013-03-10 07:25:00,26.2,22.9,30.26,ENE,75,0.0,3.0,87,0.00,BKN,OVC,0.00,WeatherDisplay:10.37,2013-03-10 11:25:00,
2013-03-10 07:34:00,27.1,23.2,30.26,ENE,72,0.0,3.0,85,0.00,BKN,OVC,0.00,WeatherDisplay:10.37,2013-03-10 11:34:00,
2013-03-10 07:39:00,27.3,23.4,30.26,ENE,76,0.0,2.0,85,0.00,BKN,OVC,0.00,WeatherDisplay:10.37,2013-03-10 11:39:00,
2013-03-10 07:44:00,27.7,23.5,30.26,East,81,1.0,4.0,84,0.00,BKN,OVC,0.00,WeatherDisplay:10.37,2013-03-10 11:44:00,
2013-03-10 07:49:00,28.0,23.5,30.26,East,82,1.0,3.0,83,0.00,BKN,OVC,0.00,WeatherDisplay:10.37,2013-03-10 11:49:00,
2013-03-10 07:54:00,28.1,23.6,30.26,East,100,0.0,3.0,83,0.00,BKN,OVC,0.00,WeatherDisplay:10.37,2013-03-10 11:54:00,
2013-03-10 07:59:00,28.1,23.6,30.26,ESE,107,0.0,2.0,83,0.00,BKN,OVC,0.00,WeatherDisplay:10.37,2013-03-10 11:59:00,
2013-03-10 08:04:00,28.2,23.7,30.26,East,90,1.0,5.0,83,0.00,BKN,OVC,0.00,WeatherDisplay:10.37,2013-03-10 12:04:00,
2013-03-10 08:09:00,28.2,23.7,30.25,East,84,1.0,7.0,83,0.00,BKN,OVC,0.00,WeatherDisplay:10.37,2013-03-10 12:09:00,
2013-03-10 08:14:00,28.2,24.0,30.26,East,84,0.0,7.0,84,0.00,BKN,OVC,0.00,WeatherDisplay:10.37,2013-03-10 12:14:00,
2013-03-10 08:19:00,28.1,23.9,30.26,ENE,75,1.0,3.0,84,0.00,BKN,OVC,0.00,WeatherDisplay:10.37,2013-03-10 12:19:00,
2013-03-10 08:24:00,28.2,24.0,30.25,ENE,77,2.0,5.0,84,0.00,BKN,OVC,0.00,WeatherDisplay:10.37,2013-03-10 12:24:00,
2013-03-10 08:29:00,28.3,24.1,30.25,ENE,69,0.0,6.0,84,0.00,BKN,OVC,0.00,WeatherDisplay:10.37,2013-03-10 12:29:00,
2013-03-10 08:34:00,28.4,24.1,30.25,ENE,63,0.0,2.0,84,0.00,BKN,OVC,0.00,WeatherDisplay:10.37,2013-03-10 12:34:00,
2013-03-10 08:39:00,28.5,24.3,30.25,NE,53,1.0,4.0,84,0.00,BKN,OVC,0.00,WeatherDisplay:10.37,2013-03-10 12:39:00,
2013-03-10 08:44:00,28.7,24.5,30.25,East,79,1.0,5.0,84,0.00,BKN,OVC,0.00,WeatherDisplay:10.37,2013-03-10 12:44:00,
2013-03-10 08:49:00,28.9,24.6,30.25,East,79,1.0,3.0,84,0.00,BKN,OVC,0.00,WeatherDisplay:10.37,2013-03-10 12:49:00,
2013-03-10 08:54:00,28.9,24.7,30.24,NE,38,1.0,4.0,84,0.00,BKN,OVC,0.00,WeatherDisplay:10.37,2013-03-10 12:54:00,
2013-03-10 08:59:00,29.1,24.9,30.24,ENE,68,0.0,5.0,84,0.00,BKN,OVC,0.00,WeatherDisplay:10.37,2013-03-10 12:59:00,
2013-03-10 09:04:00,29.5,25.0,30.24,East,92,2.0,5.0,83,0.00,BKN,OVC,0.00,WeatherDisplay:10.37,2013-03-10 13:04:00,
2013-03-10 09:09:00,29.8,25.0,30.24,East,96,2.0,5.0,82,0.00,BKN,OVC,0.00,WeatherDisplay:10.37,2013-03-10 13:09:00,
2013-03-10 09:14:00,30.1,25.3,30.24,NE,52,1.0,5.0,82,0.00,OVC,OVC,0.00,WeatherDisplay:10.37,2013-03-10 13:14:00,
2013-03-10 09:19:00,30.2,25.1,30.24,NE,54,2.0,5.0,81,0.00,OVC,OVC,0.00,WeatherDisplay:10.37,2013-03-10 13:19:00,
2013-03-10 09:24:00,30.2,25.1,30.24,East,80,1.0,5.0,81,0.00,OVC,OVC,0.00,WeatherDisplay:10.37,2013-03-10 13:24:00,
2013-03-10 09:29:00,30.4,25.3,30.23,ENE,71,1.0,3.0,81,0.00,OVC,OVC,0.00,WeatherDisplay:10.37,2013-03-10 13:29:00,
2013-03-10 09:34:00,30.9,25.7,30.23,ENE,65,0.0,1.0,81,0.00,OVC,OVC,0.00,WeatherDisplay:10.37,2013-03-10 13:34:00,
2013-03-10 09:39:00,31.2,25.7,30.23,East,90,1.0,3.0,80,0.00,OVC,OVC,0.00,WeatherDisplay:10.37,2013-03-10 13:39:00,
2013-03-10 09:44:00,31.3,25.6,30.23,East,97,1.0,3.0,79,0.00,OVC,OVC,0.00,WeatherDisplay:10.37,2013-03-10 13:44:00,
2013-03-10 09:49:00,31.5,25.8,30.23,East,84,0.0,2.0,79,0.00,OVC,OVC,0.00,WeatherDisplay:10.37,2013-03-10 13:49:00,
2013-03-10 09:54:00,31.5,25.8,30.23,East,79,1.0,2.0,79,0.00,OVC,OVC,0.00,WeatherDisplay:10.37,2013-03-10 13:54:00,
2013-03-10 09:59:00,31.8,26.0,30.23,East,81,0.0,2.0,79,0.00,OVC,OVC,0.00,WeatherDisplay:10.37,2013-03-10 13:59:00,
2013-03-10 10:04:00,31.7,25.6,30.22,East,99,2.0,8.0,78,0.00,OVC,OVC,0.00,WeatherDisplay:10.37,2013-03-10 14:04:00,
2013-03-10 10:09:00,31.6,25.5,30.22,East,85,2.0,7.0,78,0.00,OVC,OVC,0.00,WeatherDisplay:10.37,2013-03-10 14:09:00,
2013-03-10 10:14:00,31.5,25.4,30.22,East,79,1.0,5.0,78,0.00,OVC,OVC,0.00,WeatherDisplay:10.37,2013-03-10 14:14:00,
2013-03-10 10:19:00,31.6,25.5,30.22,ENE,76,2.0,5.0,78,0.00,OVC,OVC,0.00,WeatherDisplay:10.37,2013-03-10 14:19:00,
2013-03-10 10:24:00,31.8,25.4,30.22,ENE,62,1.0,5.0,77,0.00,OVC,OVC,0.00,WeatherDisplay:10.37,2013-03-10 14:24:00,
2013-03-10 10:29:00,31.9,25.5,30.22,ENE,69,2.0,6.0,77,0.00,OVC,OVC,0.00,WeatherDisplay:10.37,2013-03-10 14:29:00,
2013-03-10 10:34:00,32.2,25.8,30.22,East,95,0.0,3.0,77,0.00,OVC,OVC,0.00,WeatherDisplay:10.37,2013-03-10 14:34:00,
2013-03-10 10:39:00,32.2,25.8,30.22,East,97,0.0,3.0,77,0.00,OVC,OVC,0.00,WeatherDisplay:10.37,2013-03-10 14:39:00,
2013-03-10 10:44:00,32.6,26.5,30.22,ENE,61,1.0,3.0,78,0.00,OVC,OVC,0.00,WeatherDisplay:10.37,2013-03-10 14:44:00,
2013-03-10 10:49:00,32.8,26.1,30.22,ENE,58,1.0,6.0,76,0.00,OVC,OVC,0.00,WeatherDisplay:10.37,2013-03-10 14:49:00,
2013-03-10 10:54:00,33.0,25.9,30.22,ENE,72,1.0,3.0,75,0.00,OVC,OVC,0.00,WeatherDisplay:10.37,2013-03-10 14:54:00,
2013-03-10 10:59:00,33.4,26.3,30.22,East,82,1.0,4.0,75,0.00,OVC,OVC,0.00,WeatherDisplay:10.37,2013-03-10 14:59:00,
2013-03-10 11:04:00,33.7,26.6,30.22,ESE,120,0.0,5.0,75,0.00,OVC,OVC,0.00,WeatherDisplay:10.37,2013-03-10 15:04:00,
2013-03-10 11:09:00,34.2,26.8,30.21,ESE,115,1.0,3.0,74,0.00,OVC,OVC,0.00,WeatherDisplay:10.37,2013-03-10 15:09:00,
2013-03-10 11:14:00,34.3,26.8,30.20,ENE,70,1.0,4.0,74,0.00,OVC,OVC,0.00,WeatherDisplay:10.37,2013-03-10 15:14:00,
2013-03-10 11:19:00,34.3,26.6,30.21,East,100,2.0,5.0,73,0.00,OVC,OVC,0.00,WeatherDisplay:10.37,2013-03-10 15:19:00,
2013-03-10 11:24:00,34.5,27.1,30.20,East,100,1.0,5.0,74,0.00,OVC,OVC,0.00,WeatherDisplay:10.37,2013-03-10 15:24:00,
2013-03-10 11:29:00,34.4,26.0,30.20,ENE,73,2.0,8.0,71,0.00,OVC,OVC,0.00,WeatherDisplay:10.37,2013-03-10 15:29:00,
2013-03-10 11:34:00,34.1,26.0,30.20,East,96,2.0,7.0,72,0.00,OVC,OVC,0.00,WeatherDisplay:10.37,2013-03-10 15:34:00,
2013-03-10 11:39:00,34.1,26.4,30.20,East,88,1.0,7.0,73,0.00,OVC,OVC,0.00,WeatherDisplay:10.37,2013-03-10 15:39:00,
2013-03-10 11:44:00,34.6,26.2,30.21,ENE,69,1.0,5.0,71,0.00,OVC,OVC,0.00,WeatherDisplay:10.37,2013-03-10 15:44:00,
2013-03-10 11:49:00,34.7,26.3,30.21,ENE,78,1.0,4.0,71,0.00,OVC,OVC,0.00,WeatherDisplay:10.37,2013-03-10 15:49:00,
2013-03-10 12:09:00,36.1,26.9,30.20,East,86,2.0,3.0,69,0.00,OVC,OVC,0.00,WeatherDisplay:10.37,2013-03-10 16:09:00,
2013-03-10 12:14:00,36.6,27.0,30.20,East,96,1.0,5.0,68,0.00,OVC,OVC,0.00,WeatherDisplay:10.37,2013-03-10 16:14:00,
2013-03-10 12:19:00,36.9,27.3,30.20,ESE,111,1.0,2.0,68,0.00,OVC,OVC,0.00,WeatherDisplay:10.37,2013-03-10 16:19:00,
2013-03-10 12:24:00,37.1,27.2,30.19,ESE,118,2.0,5.0,67,0.00,OVC,OVC,0.00,WeatherDisplay:10.37,2013-03-10 16:24:00,
2013-03-10 12:29:00,37.2,27.2,30.19,ESE,105,0.0,4.0,67,0.00,OVC,OVC,0.00,WeatherDisplay:10.37,2013-03-10 16:29:00,
2013-03-10 12:34:00,37.2,27.2,30.19,East,96,2.0,5.0,67,0.00,OVC,OVC,0.00,WeatherDisplay:10.37,2013-03-10 16:34:00,
2013-03-10 12:39:00,37.0,27.1,30.19,East,101,2.0,7.0,67,0.00,OVC,OVC,0.00,WeatherDisplay:10.37,2013-03-10 16:39:00,
2013-03-10 12:49:00,37.5,27.5,30.18,East,95,2.0,6.0,67,0.00,OVC,OVC,0.00,WeatherDisplay:10.37,2013-03-10 16:49:00,
2013-03-10 12:54:00,37.2,26.9,30.18,ENE,75,3.0,6.0,66,0.00,OVC,OVC,0.00,WeatherDisplay:10.37,2013-03-10 16:54:00,
2013-03-10 12:59:00,36.6,27.0,30.17,East,81,1.0,7.0,68,0.00,OVC,OVC,0.00,WeatherDisplay:10.37,2013-03-10 16:59:00,
2013-03-10 13:04:00,36.5,26.9,30.17,East,85,1.0,5.0,68,0.00,OVC,OVC,0.00,WeatherDisplay:10.37,2013-03-10 17:04:00,
2013-03-10 13:09:00,36.5,26.9,30.17,ENE,78,2.0,6.0,68,0.00,OVC,OVC,0.00,WeatherDisplay:10.37,2013-03-10 17:09:00,
2013-03-10 13:14:00,36.8,27.9,30.17,East,93,1.0,4.0,70,0.00,OVC,OVC,0.00,WeatherDisplay:10.37,2013-03-10 17:14:00,
2013-03-10 13:19:00,36.5,27.3,30.17,East,89,1.0,6.0,69,0.00,OVC,OVC,0.00,WeatherDisplay:10.37,2013-03-10 17:19:00,
2013-03-10 13:24:00,36.2,27.4,30.17,East,88,2.0,5.0,70,0.00,OVC,OVC,0.00,WeatherDisplay:10.37,2013-03-10 17:24:00,
2013-03-10 13:29:00,36.0,27.2,30.17,East,98,1.0,4.0,70,0.00,OVC,OVC,0.00,WeatherDisplay:10.37,2013-03-10 17:29:00,
2013-03-10 13:34:00,36.1,27.6,30.16,ENE,75,1.0,5.0,71,0.00,OVC,OVC,0.00,WeatherDisplay:10.37,2013-03-10 17:34:00,
2013-03-10 13:39:00,36.2,27.3,30.17,ENE,71,1.0,3.0,70,0.00,OVC,OVC,0.00,WeatherDisplay:10.37,2013-03-10 17:39:00,
2013-03-10 13:44:00,36.5,28.3,30.16,ENE,77,0.0,3.0,72,0.00,OVC,OVC,0.00,WeatherDisplay:10.37,2013-03-10 17:44:00,
2013-03-10 13:49:00,36.8,28.3,30.16,East,88,1.0,2.0,71,0.00,OVC,OVC,0.00,WeatherDisplay:10.37,2013-03-10 17:49:00,
2013-03-10 13:54:00,37.1,28.2,30.16,East,91,0.0,3.0,70,0.00,OVC,OVC,0.00,WeatherDisplay:10.37,2013-03-10 17:54:00,
2013-03-10 13:59:00,37.1,28.2,30.16,NE,50,1.0,3.0,70,0.00,OVC,OVC,0.00,WeatherDisplay:10.37,2013-03-10 17:59:00,
2013-03-10 14:04:00,37.4,28.2,30.15,ENE,77,2.0,7.0,69,0.00,OVC,OVC,0.00,WeatherDisplay:10.37,2013-03-10 18:04:00,
2013-03-10 14:09:00,37.3,27.7,30.15,East,81,2.0,8.0,68,0.00,OVC,OVC,0.00,WeatherDisplay:10.37,2013-03-10 18:09:00,
2013-03-10 14:14:00,37.5,28.2,30.14,ENE,78,2.0,7.0,69,0.00,OVC,OVC,0.00,WeatherDisplay:10.37,2013-03-10 18:14:00,
2013-03-10 14:19:00,37.8,28.5,30.14,East,91,1.0,3.0,69,0.00,OVC,OVC,0.00,WeatherDisplay:10.37,2013-03-10 18:19:00,
2013-03-10 14:24:00,38.2,28.2,30.14,ENE,64,2.0,4.0,67,0.00,OVC,OVC,0.00,WeatherDisplay:10.37,2013-03-10 18:24:00,
2013-03-10 14:29:00,38.0,28.0,30.14,ENE,69,0.0,4.0,67,0.00,OVC,OVC,0.00,WeatherDisplay:10.37,2013-03-10 18:29:00,
2013-03-10 14:34:00,38.1,28.1,30.13,East,88,1.0,3.0,67,0.00,OVC,OVC,0.00,WeatherDisplay:10.37,2013-03-10 18:34:00,
2013-03-10 14:39:00,38.6,28.5,30.13,East,94,1.0,3.0,67,0.00,OVC,OVC,0.00,WeatherDisplay:10.37,2013-03-10 18:39:00,
2013-03-10 14:44:00,39.1,28.7,30.13,East,98,1.0,6.0,66,0.00,OVC,OVC,0.00,WeatherDisplay:10.37,2013-03-10 18:44:00,
2013-03-10 14:49:00,38.7,28.7,30.13,East,94,0.0,3.0,67,0.00,OVC,OVC,0.00,WeatherDisplay:10.37,2013-03-10 18:49:00,
2013-03-10 14:54:00,38.8,28.4,30.12,East,85,1.0,5.0,66,0.00,OVC,OVC,0.00,WeatherDisplay:10.37,2013-03-10 18:54:00,
2013-03-10 14:59:00,38.8,28.4,30.12,ENE,59,1.0,5.0,66,0.00,OVC,OVC,0.00,WeatherDisplay:10.37,2013-03-10 18:59:00,
2013-03-10 15:04:00,39.2,28.4,30.12,East,83,1.0,5.0,65,0.00,OVC,OVC,0.00,WeatherDisplay:10.37,2013-03-10 19:04:00,
2013-03-10 15:09:00,40.6,29.3,30.12,ESE,106,1.0,5.0,64,0.00,OVC,OVC,0.00,WeatherDisplay:10.37,2013-03-10 19:09:00,
2013-03-10 15:14:00,40.5,28.9,30.12,East,79,1.0,5.0,63,0.00,OVC,OVC,0.00,WeatherDisplay:10.37,2013-03-10 19:14:00,
2013-03-10 15:19:00,40.5,29.2,30.12,East,83,1.0,4.0,64,0.00,OVC,OVC,0.00,WeatherDisplay:10.37,2013-03-10 19:19:00,
2013-03-10 15:24:00,40.2,29.0,30.12,East,93,0.0,3.0,64,0.00,OVC,OVC,0.00,WeatherDisplay:10.37,2013-03-10 19:24:00,
2013-03-10 15:29:00,40.4,28.8,30.12,ESE,106,1.0,5.0,63,0.00,OVC,OVC,0.00,WeatherDisplay:10.37,2013-03-10 19:29:00,
2013-03-10 15:34:00,40.4,29.2,30.11,ESE,107,1.0,4.0,64,0.00,OVC,OVC,0.00,WeatherDisplay:10.37,2013-03-10 19:34:00,
2013-03-10 15:44:00,40.5,28.8,30.11,ESE,111,0.0,2.0,63,0.00,OVC,OVC,0.00,WeatherDisplay:10.37,2013-03-10 19:44:00,
2013-03-10 15:49:00,40.4,29.2,30.10,East,98,2.0,3.0,64,0.00,OVC,OVC,0.00,WeatherDisplay:10.37,2013-03-10 19:49:00,
2013-03-10 15:54:00,40.4,28.8,30.09,East,97,2.0,5.0,63,0.00,OVC,OVC,0.00,WeatherDisplay:10.37,2013-03-10 19:54:00,
2013-03-10 15:59:00,40.2,29.3,30.08,ESE,102,1.0,4.0,65,0.00,OVC,OVC,0.00,WeatherDisplay:10.37,2013-03-10 19:59:00,
2013-03-10 16:04:00,40.0,28.8,30.08,East,83,1.0,5.0,64,0.00,OVC,OVC,0.00,WeatherDisplay:10.37,2013-03-10 20:04:00,
2013-03-10 16:14:00,40.0,29.2,30.09,NE,56,1.0,2.0,65,0.00,BKN,OVC,0.00,WeatherDisplay:10.37,2013-03-10 20:14:00,
2013-03-10 16:19:00,39.7,28.9,30.09,East,81,0.0,2.0,65,0.00,BKN,OVC,0.00,WeatherDisplay:10.37,2013-03-10 20:19:00,
2013-03-10 16:24:00,40.2,29.0,30.09,East,88,1.0,3.0,64,0.00,BKN,OVC,0.00,WeatherDisplay:10.37,2013-03-10 20:24:00,
2013-03-10 16:29:00,40.3,29.4,30.09,East,101,0.0,3.0,65,0.00,BKN,OVC,0.00,WeatherDisplay:10.37,2013-03-10 20:29:00,
2013-03-10 16:34:00,40.1,29.7,30.09,East,90,0.0,3.0,66,0.00,BKN,OVC,0.00,WeatherDisplay:10.37,2013-03-10 20:34:00,
2013-03-10 16:39:00,40.1,29.3,30.09,ENE,74,1.0,3.0,65,0.00,BKN,OVC,0.00,WeatherDisplay:10.37,2013-03-10 20:39:00,
2013-03-10 16:44:00,40.1,29.6,30.07,ENE,78,1.0,3.0,66,0.00,BKN,OVC,0.00,WeatherDisplay:10.37,2013-03-10 20:44:00,
2013-03-10 16:49:00,39.7,29.3,30.07,ENE,77,1.0,3.0,66,0.00,BKN,OVC,0.00,WeatherDisplay:10.37,2013-03-10 20:49:00,
2013-03-10 16:59:00,39.5,29.4,30.07,NNE,31,0.0,3.0,67,0.00,BKN,OVC,0.00,WeatherDisplay:10.37,2013-03-10 20:59:00,
2013-03-10 17:09:00,39.5,29.5,30.07,NNE,29,0.0,3.0,67,0.00,BKN,OVC,0.00,WeatherDisplay:10.37,2013-03-10 21:09:00,
2013-03-10 17:14:00,39.4,29.3,30.07,ENE,64,0.0,2.0,67,0.00,BKN,OVC,0.00,WeatherDisplay:10.37,2013-03-10 21:14:00,
2013-03-10 17:19:00,39.4,29.7,30.06,East,85,0.0,3.0,68,0.00,BKN,OVC,0.00,WeatherDisplay:10.37,2013-03-10 21:19:00,
2013-03-10 17:24:00,39.6,29.5,30.06,ENE,71,1.0,3.0,67,0.00,BKN,OVC,0.00,WeatherDisplay:10.37,2013-03-10 21:24:00,
2013-03-10 17:29:00,39.3,29.6,30.06,North,5,0.0,1.0,68,0.00,BKN,OVC,0.00,WeatherDisplay:10.37,2013-03-10 21:29:00,
2013-03-10 17:34:00,39.4,29.7,30.05,NNE,22,0.0,2.0,68,0.00,BKN,OVC,0.00,WeatherDisplay:10.37,2013-03-10 21:34:00,
2013-03-10 17:39:00,39.5,29.4,30.04,East,95,1.0,3.0,67,0.00,BKN,OVC,0.00,WeatherDisplay:10.37,2013-03-10 21:39:00,
2013-03-10 17:44:00,39.9,29.8,30.04,East,88,0.0,3.0,67,0.00,BKN,OVC,0.00,WeatherDisplay:10.37,2013-03-10 21:44:00,
2013-03-10 17:49:00,39.9,30.2,30.05,NE,55,0.0,4.0,68,0.00,BKN,OVC,0.00,WeatherDisplay:10.37,2013-03-10 21:49:00,
2013-03-10 17:54:00,39.8,29.7,30.05,NE,42,0.0,2.0,67,0.00,BKN,OVC,0.00,WeatherDisplay:10.37,2013-03-10 21:54:00,
2013-03-10 17:59:00,39.9,29.5,30.04,ENE,73,0.0,2.0,66,0.00,BKN,OVC,0.00,WeatherDisplay:10.37,2013-03-10 21:59:00,
2013-03-10 18:04:00,39.5,29.5,30.04,East,91,0.0,2.0,67,0.00,BKN,OVC,0.00,WeatherDisplay:10.37,2013-03-10 22:04:00,
2013-03-10 18:14:00,39.3,29.7,30.05,East,89,0.0,1.0,68,0.00,BKN,OVC,0.00,WeatherDisplay:10.37,2013-03-10 22:14:00,
2013-03-10 18:19:00,39.0,29.7,30.05,ENE,76,0.0,1.0,69,0.00,BKN,OVC,0.00,WeatherDisplay:10.37,2013-03-10 22:19:00,
2013-03-10 18:24:00,39.0,29.7,30.05,NE,48,0.0,1.0,69,0.00,BKN,OVC,0.00,WeatherDisplay:10.37,2013-03-10 22:24:00,
2013-03-10 18:29:00,38.8,29.5,30.05,NE,46,0.0,0.0,69,0.00,BKN,OVC,0.00,WeatherDisplay:10.37,2013-03-10 22:29:00,
2013-03-10 18:34:00,38.7,29.4,30.05,NE,46,0.0,0.0,69,0.00,BKN,OVC,0.00,WeatherDisplay:10.37,2013-03-10 22:34:00,
2013-03-10 18:44:00,38.4,29.5,30.05,NE,46,0.0,1.0,70,0.00,BKN,OVC,0.00,WeatherDisplay:10.37,2013-03-10 22:44:00,
2013-03-10 18:49:00,38.1,29.5,30.06,NE,45,0.0,2.0,71,0.00,BKN,OVC,0.00,WeatherDisplay:10.37,2013-03-10 22:49:00,
2013-03-10 18:54:00,37.6,29.4,30.06,NE,43,0.0,2.0,72,0.00,BKN,OVC,0.00,WeatherDisplay:10.37,2013-03-10 22:54:00,
2013-03-10 18:59:00,37.6,29.4,30.06,NE,42,0.0,1.0,72,0.00,BKN,OVC,0.00,WeatherDisplay:10.37,2013-03-10 22:59:00,
2013-03-10 19:04:00,37.3,29.8,30.06,NNE,25,0.0,3.0,74,0.00,BKN,OVC,0.00,WeatherDisplay:10.37,2013-03-10 23:04:00,
2013-03-10 19:09:00,37.4,29.2,30.05,North,6,0.0,0.0,72,0.00,BKN,OVC,0.00,WeatherDisplay:10.37,2013-03-10 23:09:00,
2013-03-10 19:19:00,36.8,29.6,30.05,NE,44,0.0,0.0,75,0.00,BKN,OVC,0.00,WeatherDisplay:10.37,2013-03-10 23:19:00,
2013-03-10 19:24:00,35.9,29.7,30.05,NNE,17,1.0,2.0,78,0.00,BKN,OVC,0.00,WeatherDisplay:10.37,2013-03-10 23:24:00,
2013-03-10 19:29:00,35.9,29.7,30.04,NNW,340,0.0,1.0,78,0.00,BKN,OVC,0.00,WeatherDisplay:10.37,2013-03-10 23:29:00,
2013-03-10 19:34:00,35.4,29.8,30.04,NNW,339,0.0,2.0,80,0.00,BKN,OVC,0.00,WeatherDisplay:10.37,2013-03-10 23:34:00,
2013-03-10 19:39:00,35.7,29.5,30.04,NNW,342,0.0,0.0,78,0.00,BKN,OVC,0.00,WeatherDisplay:10.37,2013-03-10 23:39:00,
2013-03-10 19:44:00,35.8,29.3,30.03,NNW,342,0.0,0.0,77,0.00,BKN,OVC,0.00,WeatherDisplay:10.37,2013-03-10 23:44:00,
2013-03-10 19:49:00,35.6,29.4,30.03,NNW,332,0.0,3.0,78,0.00,BKN,OVC,0.00,WeatherDisplay:10.37,2013-03-10 23:49:00,
2013-03-10 19:54:00,35.4,29.6,30.03,NW,320,0.0,3.0,79,0.00,BKN,OVC,0.00,WeatherDisplay:10.37,2013-03-10 23:54:00,
2013-03-10 19:59:00,35.0,29.2,30.03,NW,325,0.0,0.0,79,0.00,BKN,OVC,0.00,WeatherDisplay:10.37,2013-03-10 23:59:00,
2013-03-10 20:04:00,35.2,28.7,30.02,NW,325,0.0,0.0,77,0.00,BKN,OVC,0.00,WeatherDisplay:10.37,2013-03-11 00:04:00,
2013-03-10 20:09:00,34.8,29.8,30.03,NW,325,0.0,0.0,82,0.00,BKN,OVC,0.00,WeatherDisplay:10.37,2013-03-11 00:09:00,
2013-03-10 20:14:00,34.3,29.4,30.03,NW,325,0.0,0.0,82,0.00,BKN,OVC,0.00,WeatherDisplay:10.37,2013-03-11 00:14:00,
2013-03-10 20:19:00,33.8,29.2,30.04,NW,325,1.0,2.0,83,0.00,BKN,OVC,0.00,WeatherDisplay:10.37,2013-03-11 00:19:00,
2013-03-10 20:24:00,33.8,29.2,30.03,NW,325,0.0,0.0,83,0.00,BKN,OVC,0.00,WeatherDisplay:10.37,2013-03-11 00:24:00,
2013-03-10 20:29:00,33.7,29.4,30.04,NW,325,0.0,0.0,84,0.00,BKN,OVC,0.00,WeatherDisplay:10.37,2013-03-11 00:29:00,
2013-03-10 20:34:00,33.8,29.2,30.04,NW,325,0.0,2.0,83,0.00,BKN,OVC,0.00,WeatherDisplay:10.37,2013-03-11 00:34:00,
2013-03-10 20:39:00,34.0,29.7,30.05,NW,325,0.0,1.0,84,0.00,BKN,OVC,0.00,WeatherDisplay:10.37,2013-03-11 00:39:00,
2013-03-10 20:44:00,34.1,29.7,30.05,NW,325,0.0,1.0,84,0.00,BKN,OVC,0.00,WeatherDisplay:10.37,2013-03-11 00:44:00,
2013-03-10 20:49:00,34.1,29.5,30.06,NW,325,0.0,2.0,83,0.00,BKN,OVC,0.00,WeatherDisplay:10.37,2013-03-11 00:49:00,
2013-03-10 20:54:00,34.2,29.6,30.06,NW,325,0.0,0.0,83,0.00,BKN,OVC,0.00,WeatherDisplay:10.37,2013-03-11 00:54:00,
2013-03-10 21:04:00,34.2,29.6,30.04,NW,325,0.0,0.0,83,0.00,BKN,OVC,0.00,WeatherDisplay:10.37,2013-03-11 01:04:00,
2013-03-10 21:09:00,34.3,29.6,30.04,NW,325,0.0,0.0,83,0.00,BKN,OVC,0.00,WeatherDisplay:10.37,2013-03-11 01:09:00,
2013-03-10 21:19:00,34.0,30.0,30.05,NW,325,0.0,1.0,85,0.00,BKN,OVC,0.00,WeatherDisplay:10.37,2013-03-11 01:19:00,
2013-03-10 21:24:00,34.0,29.7,30.05,NNW,327,1.0,2.0,84,0.00,BKN,OVC,0.00,WeatherDisplay:10.37,2013-03-11 01:24:00,
2013-03-10 21:29:00,34.1,29.2,30.05,NNW,332,0.0,2.0,82,0.00,BKN,OVC,0.00,WeatherDisplay:10.37,2013-03-11 01:29:00,
2013-03-10 21:34:00,34.2,29.3,30.04,NNW,335,0.0,1.0,82,0.00,BKN,OVC,0.00,WeatherDisplay:10.37,2013-03-11 01:34:00,
2013-03-10 21:39:00,33.9,29.6,30.05,NNW,335,1.0,2.0,84,0.00,BKN,OVC,0.00,WeatherDisplay:10.37,2013-03-11 01:39:00,
2013-03-10 21:44:00,33.9,29.5,30.05,NNW,335,0.0,0.0,84,0.00,BKN,OVC,0.00,WeatherDisplay:10.37,2013-03-11 01:44:00,
2013-03-10 21:49:00,33.8,29.5,30.06,NNW,335,0.0,0.0,84,0.00,BKN,OVC,0.00,WeatherDisplay:10.37,2013-03-11 01:49:00,
2013-03-10 21:54:00,33.6,29.6,30.06,NNW,335,0.0,1.0,85,0.00,BKN,OVC,0.00,WeatherDisplay:10.37,2013-03-11 01:54:00,
2013-03-10 21:59:00,33.4,29.4,30.06,NNW,335,0.0,1.0,85,0.00,BKN,OVC,0.00,WeatherDisplay:10.37,2013-03-11 01:59:00,
2013-03-10 22:04:00,33.2,29.2,30.06,NNW,335,0.0,1.0,85,0.00,BKN,OVC,0.00,WeatherDisplay:10.37,2013-03-11 02:04:00,
2013-03-10 22:09:00,33.1,29.4,30.05,NNW,335,0.0,1.0,86,0.00,BKN,OVC,0.00,WeatherDisplay:10.37,2013-03-11 02:09:00,
2013-03-10 22:14:00,33.1,29.1,30.05,NNW,335,0.0,0.0,85,0.00,OVC,OVC,0.00,WeatherDisplay:10.37,2013-03-11 02:14:00,
2013-03-10 22:19:00,33.2,29.2,30.05,NNW,335,0.0,2.0,85,0.00,OVC,OVC,0.00,WeatherDisplay:10.37,2013-03-11 02:19:00,
2013-03-10 22:24:00,33.4,29.4,30.05,NW,325,0.0,3.0,85,0.00,OVC,OVC,0.00,WeatherDisplay:10.37,2013-03-11 02:24:00,
2013-03-10 22:29:00,33.6,29.3,30.05,NW,318,0.0,0.0,84,0.00,OVC,OVC,0.00,WeatherDisplay:10.37,2013-03-11 02:29:00,
2013-03-10 22:34:00,33.7,29.6,30.05,NW,318,0.0,1.0,85,0.00,OVC,OVC,0.00,WeatherDisplay:10.37,2013-03-11 02:34:00,
2013-03-10 22:39:00,33.5,29.8,30.05,NW,318,0.0,0.0,86,0.00,OVC,OVC,0.00,WeatherDisplay:10.37,2013-03-11 02:39:00,
2013-03-10 22:44:00,33.4,29.9,30.05,NW,323,0.0,2.0,87,0.00,OVC,OVC,0.00,WeatherDisplay:10.37,2013-03-11 02:44:00,
2013-03-10 22:49:00,33.7,29.7,30.06,NNW,332,1.0,3.0,85,0.00,OVC,OVC,0.00,WeatherDisplay:10.37,2013-03-11 02:49:00,
2013-03-10 22:54:00,34.0,29.4,30.05,NNW,340,0.0,3.0,83,0.00,OVC,OVC,0.00,WeatherDisplay:10.37,2013-03-11 02:54:00,
2013-03-10 22:59:00,34.1,29.5,30.05,North,349,0.0,0.0,83,0.00,OVC,OVC,0.00,WeatherDisplay:10.37,2013-03-11 02:59:00,
2013-03-10 23:04:00,33.9,29.8,30.05,North,349,0.0,0.0,85,0.00,OVC,OVC,0.00,WeatherDisplay:10.37,2013-03-11 03:04:00,
2013-03-10 23:09:00,33.9,29.6,30.05,North,349,0.0,0.0,84,0.00,OVC,OVC,0.00,WeatherDisplay:10.37,2013-03-11 03:09:00,
2013-03-10 23:14:00,33.9,29.9,30.05,North,349,0.0,0.0,85,0.00,OVC,OVC,0.00,WeatherDisplay:10.37,2013-03-11 03:14:00,
2013-03-10 23:19:00,33.9,29.9,30.05,North,349,0.0,0.0,85,0.00,OVC,OVC,0.00,WeatherDisplay:10.37,2013-03-11 03:19:00,
2013-03-10 23:24:00,33.9,29.9,30.04,North,349,0.0,0.0,85,0.00,OVC,OVC,0.00,WeatherDisplay:10.37,2013-03-11 03:24:00,
2013-03-10 23:29:00,33.8,29.8,30.05,North,349,1.0,2.0,85,0.00,OVC,OVC,0.00,WeatherDisplay:10.37,2013-03-11 03:29:00,
2013-03-10 23:34:00,33.8,30.1,30.05,North,349,1.0,2.0,86,0.00,OVC,OVC,0.00,WeatherDisplay:10.37,2013-03-11 03:34:00,
2013-03-10 23:39:00,33.9,29.9,30.05,NNW,334,0.0,2.0,85,0.00,OVC,OVC,0.00,WeatherDisplay:10.37,2013-03-11 03:39:00,
2013-03-10 23:44:00,34.0,29.9,30.06,NNW,327,0.0,2.0,85,0.00,OVC,OVC,0.00,WeatherDisplay:10.37,2013-03-11 03:44:00,
2013-03-10 23:49:00,33.9,29.8,30.05,NNW,334,0.0,0.0,85,0.00,OVC,OVC,0.00,WeatherDisplay:10.37,2013-03-11 03:49:00,
2013-03-10 23:54:00,33.7,29.7,30.05,NNW,336,0.0,0.0,85,0.00,OVC,OVC,0.00,WeatherDisplay:10.37,2013-03-11 03:54:00,
2013-03-10 23:59:00,33.4,29.4,30.04,NNW,336,0.0,0.0,85,0.00,OVC,OVC,0.00,WeatherDisplay:10.37,2013-03-11 03:59:00,